• In Germany
  • List of Countries
  • For 7 days
  • Water Temperature
  • Satellite Maps
  • Weather Map
  • Weather Widgets
  • user-avatar
    Login

    Hourly Weather Mendoza

    Today, 11 December, Monday

    Time Temperature Precipitation Wind Pressure Humidity
    00:00 +27°C° 0 mm 2 mps 700 mmHg 43%
    01:00 +26°C° 0 mm 2 mps 700 mmHg 45%
    02:00 +26°C° 0 mm 2 mps 700 mmHg 47%
    03:00 +25°C° 0 mm 2 mps 699 mmHg 48%
    04:00 +25°C° 0 mm 2 mps 699 mmHg 50%
    05:00 +25°C° 0 mm 2 mps 699 mmHg 48%
    06:00 +26°C° 0 mm 3 mps 699 mmHg 46%
    07:00 +27°C° 0 mm 3 mps 699 mmHg 44%
    08:00 +28°C° 0 mm 3 mps 699 mmHg 41%
    09:00 +29°C° 0 mm 3 mps 699 mmHg 38%
    10:00 +30°C° 0 mm 4 mps 699 mmHg 36%
    11:00 +32°C° 0.1 mm 4 mps 698 mmHg 34%
    12:00 +33°C° 0.1 mm 4 mps 697 mmHg 32%
    13:00 +34°C° 0.1 mm 5 mps 697 mmHg 31%
    14:00 +34°C° 0.2 mm 5 mps 696 mmHg 30%
    15:00 +34°C° 0.2 mm 5 mps 696 mmHg 30%
    16:00 +35°C° 0.2 mm 5 mps 695 mmHg 30%
    17:00 +34°C° 0.2 mm 4 mps 695 mmHg 31%
    18:00 +33°C° 0.2 mm 3 mps 695 mmHg 33%
    19:00 +31°C° 0.2 mm 2 mps 695 mmHg 34%
    20:00 +30°C° 0 mm 2 mps 695 mmHg 36%
    21:00 +30°C° 0 mm 2 mps 696 mmHg 38%
    22:00 +29°C° 0 mm 1 mps 696 mmHg 40%
    23:00 +29°C° 0 mm 2 mps 696 mmHg 41%

    Tomorrow, 12 December, Tuesday

    Time Temperature Precipitation Wind Pressure Humidity
    00:00 +28°C° 0 mm 2 mps 696 mmHg 41%
    01:00 +28°C° 0 mm 2 mps 695 mmHg 42%
    02:00 +27°C° 0 mm 2 mps 695 mmHg 42%
    03:00 +26°C° 0 mm 2 mps 695 mmHg 43%
    04:00 +26°C° 0 mm 2 mps 695 mmHg 44%
    05:00 +27°C° 0 mm 2 mps 695 mmHg 41%
    06:00 +28°C° 0 mm 2 mps 696 mmHg 37%
    07:00 +29°C° 0 mm 2 mps 696 mmHg 34%
    08:00 +30°C° 0 mm 2 mps 696 mmHg 33%
    09:00 +31°C° 0 mm 2 mps 696 mmHg 32%
    10:00 +33°C° 0 mm 3 mps 696 mmHg 31%
    11:00 +34°C° 0.1 mm 3 mps 696 mmHg 30%
    12:00 +35°C° 0.1 mm 3 mps 695 mmHg 28%
    13:00 +36°C° 0.1 mm 4 mps 695 mmHg 27%
    14:00 +36°C° 0.2 mm 3 mps 695 mmHg 27%
    15:00 +36°C° 0.2 mm 3 mps 694 mmHg 26%
    16:00 +36°C° 0.2 mm 3 mps 694 mmHg 26%
    17:00 +35°C° 0.3 mm 3 mps 694 mmHg 28%
    18:00 +34°C° 0.3 mm 3 mps 694 mmHg 30%
    19:00 +33°C° 0.3 mm 3 mps 695 mmHg 33%
    20:00 +32°C° 0.3 mm 4 mps 695 mmHg 35%
    21:00 +32°C° 0.3 mm 5 mps 696 mmHg 38%
    22:00 +30°C° 0.3 mm 7 mps 696 mmHg 40%
    23:00 +28°C° 0.3 mm 7 mps 696 mmHg 50%

    Day after tomorrow, 13 December, Wednesday

    Time Temperature Precipitation Wind Pressure Humidity
    00:00 +26°C° 0.3 mm 7 mps 696 mmHg 59%
    01:00 +23°C° 0.3 mm 7 mps 695 mmHg 68%
    02:00 +22°C° 0.1 mm 7 mps 696 mmHg 69%
    03:00 +21°C° 0.1 mm 6 mps 696 mmHg 69%
    04:00 +21°C° 0.1 mm 6 mps 697 mmHg 70%
    05:00 +22°C° 0.1 mm 5 mps 697 mmHg 65%
    06:00 +22°C° 0.1 mm 5 mps 698 mmHg 61%
    07:00 +23°C° 0.1 mm 4 mps 698 mmHg 57%
    08:00 +26°C° 0 mm 4 mps 698 mmHg 49%
    09:00 +27°C° 0 mm 5 mps 699 mmHg 41%
    10:00 +29°C° 0 mm 5 mps 699 mmHg 34%
    11:00 +30°C° 0 mm 5 mps 699 mmHg 32%
    12:00 +32°C° 0 mm 5 mps 698 mmHg 30%
    13:00 +33°C° 0 mm 5 mps 698 mmHg 28%
    14:00 +33°C° 0 mm 5 mps 698 mmHg 27%
    15:00 +33°C° 0 mm 5 mps 698 mmHg 27%
    16:00 +33°C° 0 mm 4 mps 697 mmHg 26%
    17:00 +32°C° 0 mm 4 mps 698 mmHg 28%
    18:00 +31°C° 0 mm 3 mps 698 mmHg 29%
    19:00 +30°C° 0 mm 3 mps 699 mmHg 31%
    20:00 +29°C° 0 mm 2 mps 699 mmHg 32%
    21:00 +29°C° 0 mm 2 mps 700 mmHg 33%
    22:00 +28°C° 0 mm 2 mps 700 mmHg 34%
    23:00 +27°C° 0 mm 2 mps 700 mmHg 36%

    14 December, Thursday

    Time Temperature Precipitation Wind Pressure Humidity
    00:00 +27°C° 0 mm 1 mps 699 mmHg 37%
    01:00 +26°C° 0 mm 1 mps 699 mmHg 38%
    02:00 +26°C° 0 mm 1 mps 699 mmHg 39%
    03:00 +25°C° 0 mm 1 mps 699 mmHg 39%
    04:00 +25°C° 0 mm 1 mps 699 mmHg 40%
    05:00 +26°C° 0 mm 2 mps 700 mmHg 38%
    06:00 +27°C° 0 mm 2 mps 700 mmHg 35%
    07:00 +28°C° 0 mm 2 mps 701 mmHg 33%
    08:00 +29°C° 0 mm 3 mps 701 mmHg 31%
    09:00 +30°C° 0 mm 3 mps 701 mmHg 30%
    10:00 +31°C° 0 mm 3 mps 700 mmHg 29%
    11:00 +33°C° 0 mm 3 mps 700 mmHg 27%
    12:00 +34°C° 0 mm 3 mps 699 mmHg 25%
    13:00 +35°C° 0 mm 3 mps 699 mmHg 24%
    14:00 +36°C° 0 mm 4 mps 698 mmHg 23%
    15:00 +36°C° 0 mm 4 mps 698 mmHg 23%
    16:00 +37°C° 0 mm 4 mps 698 mmHg 22%
    17:00 +36°C° 0 mm 3 mps 698 mmHg 23%
    18:00 +35°C° 0 mm 3 mps 698 mmHg 25%
    19:00 +34°C° 0 mm 2 mps 698 mmHg 26%
    20:00 +32°C° 0 mm 2 mps 699 mmHg 28%
    21:00 +32°C° 0 mm 2 mps 699 mmHg 30%
    22:00 +31°C° 0 mm 2 mps 700 mmHg 33%
    23:00 +30°C° 0 mm 3 mps 699 mmHg 35%

    15 December, Friday

    Time Temperature Precipitation Wind Pressure Humidity
    00:00 +29°C° 0 mm 3 mps 699 mmHg 37%
    01:00 +28°C° 0 mm 3 mps 699 mmHg 40%
    02:00 +28°C° 0 mm 4 mps 698 mmHg 41%
    03:00 +27°C° 0 mm 4 mps 698 mmHg 43%
    04:00 +26°C° 0 mm 5 mps 698 mmHg 44%
    05:00 +27°C° 0 mm 5 mps 698 mmHg 41%
    06:00 +28°C° 0 mm 5 mps 698 mmHg 38%
    07:00 +28°C° 0 mm 5 mps 698 mmHg 35%
    08:00 +30°C° 0 mm 5 mps 698 mmHg 33%
    09:00 +32°C° 0 mm 4 mps 698 mmHg 30%
    10:00 +33°C° 0 mm 4 mps 697 mmHg 28%
    11:00 +34°C° 0 mm 4 mps 697 mmHg 27%
    12:00 +35°C° 0 mm 3 mps 696 mmHg 25%
    13:00 +36°C° 0 mm 3 mps 695 mmHg 24%
    14:00 +37°C° 0 mm 3 mps 695 mmHg 24%
    15:00 +37°C° 0 mm 3 mps 695 mmHg 24%
    16:00 +38°C° 0 mm 4 mps 694 mmHg 23%
    17:00 +37°C° 0 mm 3 mps 694 mmHg 25%
    18:00 +36°C° 0 mm 3 mps 694 mmHg 27%
    19:00 +35°C° 0 mm 2 mps 694 mmHg 28%
    20:00 +35°C° 0 mm 2 mps 694 mmHg 30%
    21:00 +34°C° 0 mm 2 mps 694 mmHg 31%
    22:00 +34°C° 0 mm 2 mps 694 mmHg 32%
    23:00 +32°C° 0 mm 2 mps 693 mmHg 32%

    16 December, Saturday

    Time Temperature Precipitation Wind Pressure Humidity
    00:00 +32°C° 0 mm 2 mps 693 mmHg 33%
    01:00 +31°C° 0 mm 3 mps 692 mmHg 33%
    02:00 +31°C° 0 mm 3 mps 692 mmHg 33%
    03:00 +30°C° 0 mm 3 mps 692 mmHg 34%
    04:00 +29°C° 0 mm 2 mps 692 mmHg 34%
    05:00 +31°C° 0 mm 2 mps 692 mmHg 31%
    06:00 +32°C° 0 mm 2 mps 692 mmHg 28%
    07:00 +35°C° 0 mm 2 mps 693 mmHg 25%
    08:00 +36°C° 0 mm 2 mps 693 mmHg 24%
    09:00 +37°C° 0 mm 3 mps 693 mmHg 23%
    10:00 +38°C° 0 mm 3 mps 693 mmHg 22%
    11:00 +39°C° 0 mm 3 mps 693 mmHg 20%
    12:00 +42°C° 0 mm 4 mps 693 mmHg 18%
    13:00 +43°C° 0 mm 4 mps 693 mmHg 15%
    14:00 +43°C° 0 mm 5 mps 693 mmHg 16%
    15:00 +42°C° 0 mm 6 mps 693 mmHg 16%
    16:00 +42°C° 0 mm 6 mps 693 mmHg 16%
    17:00 +41°C° 0.3 mm 6 mps 694 mmHg 18%
    18:00 +39°C° 0.3 mm 5 mps 694 mmHg 21%
    19:00 +36°C° 0.3 mm 5 mps 695 mmHg 23%
    20:00 +35°C° 0.1 mm 6 mps 696 mmHg 22%
    21:00 +33°C° 0.1 mm 8 mps 697 mmHg 20%
    22:00 +31°C° 0.1 mm 9 mps 699 mmHg 19%
    23:00 +28°C° 0 mm 8 mps 699 mmHg 19%
    Show more